Regional Weather Roundup
Issued by NWS

Home | Current Version | Previous Version | Text Only | Print | Product List | Glossary Off
Versions: 1 2 3 4 5 6 7 8 9 10 11 12 13 14 15 16 17 18 19 20 21 22 23 24 25 26 27 28 29 30 31 32 33 34 35 36 37 38 39 40 41 42 43 44 45 46 47 48 49 50

000
ASUS43 KLMK 030510
RWRKY
KENTUCKY REGIONAL WEATHER ROUNDUP
NATIONAL WEATHER SERVICE LOUISVILLE KY
100 AM EDT MON AUG 03 2015

NOTE "FAIR" INDICATES FEW OR NO CLOUDS BELOW 12,000 FEET
WITH NO SIGNIFICANT WEATHER AND/OR OBSTRUCTIONS TO VISIBILITY.

KYZ001>023-026-027-061>063-070>075-030600-
WESTERN AND SOUTH CENTRAL KENTUCKY

CITY           SKY/WX    TMP DP  RH WIND       PRES   REMARKS
PADUCAH        CLEAR     78  71  79 S5        29.89S
HENDERSON      PTCLDY    73  66  78 S3        29.87S
OWENSBORO      PTCLDY    73  67  81 S6        29.90R
HOPKINSVILLE   CLEAR     74  65  74 CALM      29.91S
BOWLING GREEN  PTCLDY    69  64  84 CALM      29.93R
GLASGOW        CLEAR    N/A N/A N/A CALM      29.93S
$$

KYZ024-025-028>034-038-045-046-053-030600-
NORTH CENTRAL KENTUCKY

CITY           SKY/WX    TMP DP  RH WIND       PRES   REMARKS
LOUISVILLE/SDF CLEAR     77  62  59 S7        29.89S
LOUISVILLE/LOU CLEAR     75  63  66 S3        29.90S
FORT KNOX      CLEAR     69  63  83 CALM      29.90S
$$

KYZ035>037-039>044-047>052-055>060-089>105-030600-
NORTHEAST KENTUCKY

CITY           SKY/WX    TMP DP  RH WIND       PRES   REMARKS
LEXINGTON      CLEAR     67  61  81 S5        29.93F
COVINGTON      CLEAR     70  62  76 S7        29.88F
FRANKFORT      CLEAR     67  61  81 SW5       29.91S
$$

KYZ054-064>069-076>088-106>120-030600-
SOUTHEAST KENTUCKY

CITY           SKY/WX    TMP DP  RH WIND       PRES   REMARKS
JACKSON        CLEAR     71  58  63 S3        29.96S
LONDON         CLEAR     67  61  81 CALM      29.95F
SOMERSET       CLEAR     63  63 100 CALM      29.96S
MIDDLESBORO    CLEAR     63  62  96 CALM      29.98S
MONTICELLO     CLEAR     62  62 100 CALM      29.98S
$$



USA.gov is the U.S. government's official web portal to all federal, state and local government web resources and services.